Location: Altoona
(40.5167°N, 78.4000°W)
Time: 22:50:21
(UTC-05:00)

Cosmos 220 Rocket - Pass Details

Date: 21 August 2017
Orbit: 575 x 619 km, 74.0° (Epoch: 22 November)

Event Time Altitude Azimuth Distance (km) Brightness Sun altitude
Rises 21:11:41 0° 345° (NNW) 2,825 8.1 -13.1°
Reaches altitude 10° 21:13:57 10° 351° (N) 1,927 7.1 -13.4°
Maximum altitude 21:18:09 51° 68° (ENE) 753 4.2 -14.1°
Enters shadow 21:20:33 23° 135° (SE) 1,270 5.1 -14.5°
